GFSGBSN_con_3kmhel_024.txt.gz
Helicity
49 46 47 56 60 78 94 102 85 76 78 64 51 48 43 42 37 34 32 35 21 12 9 19 18 4 8 41 43 30 66 64 46 15 -25 -6 -13 71 122 98 73 97 80 46 48 -13 -3
43 40 36 29 27 47 77 95 100 77 74 76 64 48 40 44 39 34 34 34 27 19 12 17 19 -2 16 42 21 38 62 55 21 -4 -38 25 66 119 84 87 70 115 10 42 6 32 38
42 38 30 28 23 32 35 75 84 80 67 65 70 66 55 44 42 37 38 31 20 12 21 16 13 -6 15 42 -6 -2 55 45 21 -29 -30 28 72 141 -13 25 63 -8 80 26 1 -64 -17
58 54 43 40 72 39 31 35 77 80 60 60 62 66 59 55 46 39 40 31 19 9 24 19 11 -11 22 21 -43 12 18 -11 -9 -11 40 83 74 58 7 52 80 32 69 30 -21 -68 5
78 73 63 55 45 49 88 54 49 67 50 46 58 63 60 53 48 42 43 39 16 10 26 24 12 4 4 28 -35 31 129 34 41 6 10 20 24 12 55 54 60 60 37 -1 16 25 13
74 73 85 78 69 63 53 56 66 64 52 46 40 54 51 51 51 50 50 54 25 39 61 31 4 -2 -31 -28 -42 -12 58 85 37 61 15 -1 14 69 42 14 66 90 95 28 18 37 91
96 88 76 83 83 68 55 43 68 98 71 45 36 43 42 45 48 51 42 51 58 61 56 43 39 8 60 -53 30 -27 27 32 16 18 44 59 53 55 46 60 98 49 74 43 12 51 48
117 116 113 88 80 88 70 68 76 89 80 63 47 43 44 40 43 50 41 53 35 40 25 54 40 -40 -33 -31 -42 -89 30 11 21 26 29 56 61 83 86 81 16 2 70 15 32 33 67
91 116 116 117 100 93 92 73 86 85 94 81 67 61 61 36 51 52 54 88 81 19 40 50 38 -46 -21 36 -20 -56 28 21 47 3 8 -8 26 12 -0 53 9 -18 89 25 21 53 88
98 94 127 116 131 123 124 91 83 100 103 100 98 96 94 101 64 55 82 120 104 73 55 41 48 -46 -15 -10 -39 -82 -37 5 49 23 -13 -4 7 8 12 24 21 37 57 39 50 69 52
209 130 95 136 148 142 134 144 107 115 137 128 123 102 126 102 90 79 126 203 106 70 61 31 40 4 45 80 2 -1 -48 -32 19 -10 16 7 39 24 29 11 24 -14 -18 13 31 56 35
195 215 131 97 120 150 153 151 162 141 149 172 149 131 150 149 65 110 158 184 123 152 55 73 78 36 95 48 -39 -18 -22 61 72 44 30 30 14 33 31 29 5 39 29 32 61 29 64
73 154 164 160 86 105 164 183 179 169 167 197 181 159 177 128 66 146 93 141 189 154 128 89 92 69 56 55 -54 -74 -61 24 38 25 24 12 59 96 40 16 33 36 43 56 68 88 43
-23 126 153 154 159 72 112 185 178 193 204 221 218 192 152 133 119 162 151 176 100 75 50 103 76 59 38 7 -35 -49 -30 -14 52 113 36 19 74 83 8 -44 36 28 63 47 48 53 16
20 101 105 80 156 118 69 165 192 187 222 241 254 246 235 91 129 183 228 129 112 156 24 126 110 126 16 -7 -19 -48 -29 4 4 101 53 36 53 93 32 28 27 41 26 25 87 89 55
117 110 81 88 173 119 113 146 230 205 240 252 316 310 248 126 159 229 219 131 198 82 112 43 98 102 68 13 -39 -68 -6 55 2 32 124 42 60 33 49 85 108 71 30 50 74 60 30
119 128 138 92 25 97 129 121 110 215 249 293 312 347 241 197 272 285 173 173 155 13 75 110 83 117 37 29 -2 -2 5 1 85 114 140 144 107 75 62 129 17 83 23 51 81 90 45
161 112 130 141 65 72 78 90 34 195 208 287 393 359 226 310 410 208 159 171 168 -38 -3 81 120 64 -21 51 8 21 -1 -1 58 145 120 122 109 67 62 -92 -70 -2 13 82 91 76 96
169 141 116 112 116 170 131 94 30 132 156 345 475 416 169 283 372 205 236 146 117 -3 -52 29 98 106 38 36 52 74 72 69 104 158 201 118 124 125 113 40 43 33 52 63 117 106 101
190 141 123 122 42 132 119 80 72 104 74 260 591 469 354 288 219 191 246 207 129 -43 3 58 105 150 92 27 95 133 -12 92 181 178 76 168 124 109 112 69 81 102 85 56 84 108 102
218 154 125 121 99 111 85 68 17 80 57 194 473 473 503 444 176 181 186 173 61 -20 -43 -19 52 104 169 44 98 108 105 117 221 227 180 151 108 131 97 84 83 90 117 70 77 80 122
215 174 179 173 152 49 94 76 -38 54 108 147 442 536 464 310 213 273 216 161 56 -34 73 -40 139 155 108 68 87 94 147 115 148 177 162 162 121 146 127 152 96 40 88 82 68 51 39
218 164 169 171 139 29 68 51 -35 94 160 131 203 143 336 326 140 284 240 227 21 -10 -12 79 102 153 153 76 98 28 123 112 101 146 172 167 169 157 102 162 150 103 65 72 56 32 28
189 159 171 166 91 33 60 -1 90 44 116 231 11 238 288 212 199 89 210 254 34 36 102 23 79 96 143 93 210 355 391 318 249 230 172 190 219 154 116 168 137 25 69 82 172 152 127
149 149 132 125 75 18 -51 49 91 -17 109 206 -56 206 308 227 153 107 106 124 84 62 97 69 51 3 122 229 296 301 316 255 268 261 197 177 197 176 145 121 94 53 77 87 95 141 120
106 96 81 50 39 -13 -6 42 62 52 100 83 59 -9 314 152 31 94 102 108 117 92 68 -63 -56 208 214 213 261 205 179 149 171 186 211 208 159 140 143 116 65 21 81 69 110 141 127
30 1 -7 5 14 -0 27 4 60 8 85 -44 -13 26 334 100 115 127 164 113 106 128 119 67 101 222 282 230 217 226 199 152 171 147 146 196 196 160 181 115 87 41 45 94 125 76 149
13 21 33 44 34 47 32 -5 77 25 98 1 -108 -72 -16 189 249 131 139 124 133 139 201 184 241 345 334 270 222 247 201 213 204 125 114 119 114 112 154 119 52 75 130 91 65 122 138
28 36 56 53 25 -0 -30 -35 36 125 51 76 -102 -30 30 -21 196 199 287 187 78 176 157 248 186 243 236 250 206 250 238 233 187 123 123 98 80 60 65 31 49 33 54 104 105 138 134

GFSGBSN_con_3kmhel_027.txt.gz
Helicity
49 51 60 68 69 59 55 74 93 89 66 60 52 54 53 54 57 54 52 43 40 25 28 20 14 16 17 26 34 30 42 79 39 11 -12 -3 13 42 85 72 37 95 83 36 25 26 -15
50 50 45 43 47 47 42 38 66 80 78 68 62 51 48 50 55 53 51 43 39 23 21 23 20 19 25 31 5 27 43 72 6 -14 -23 -6 21 22 91 87 46 37 27 29 16 19 7
57 55 51 37 38 37 32 34 35 45 52 49 53 60 55 50 54 61 53 46 38 22 17 26 25 17 23 29 7 -15 29 19 -17 -26 -28 10 -13 68 98 118 28 -8 23 15 32 -17 10
66 59 50 59 30 41 29 28 26 28 45 44 37 47 56 53 53 63 62 57 43 28 16 27 35 26 27 -7 -34 -50 22 -31 -10 -23 -30 45 33 43 75 71 46 35 11 14 2 18 -19
105 84 57 46 57 32 56 62 59 33 8 28 36 30 40 50 51 58 59 67 56 31 19 26 41 37 19 -61 -39 -4 51 -4 6 -0 -26 30 19 26 55 67 65 55 26 20 18 30 -9
87 103 108 82 60 52 37 41 70 95 119 49 11 38 30 38 41 52 63 78 42 45 54 45 50 43 -0 25 -38 -64 -2 21 -8 7 -28 19 25 40 73 70 49 50 64 46 15 -17 25
92 108 90 133 117 81 56 40 44 45 70 96 53 34 38 31 32 47 57 49 54 50 61 55 57 30 61 36 -59 -62 -8 29 -20 -4 -15 -1 46 36 36 67 47 33 56 62 18 -13 49
188 86 98 107 108 146 101 75 57 61 80 91 122 65 41 35 31 36 44 63 52 56 33 14 13 -25 -37 2 -36 -46 14 -1 -0 7 -29 36 58 48 69 45 48 95 51 107 74 4 85
155 165 90 87 119 103 126 126 97 77 70 75 103 111 63 47 49 32 52 58 42 31 19 25 62 21 -23 49 -7 -23 -4 3 -10 6 -4 10 36 11 71 79 18 11 74 99 93 23 56
152 137 200 104 77 114 127 108 123 113 86 88 88 99 79 93 69 49 47 53 61 -1 53 34 62 39 63 53 4 -40 -35 15 -39 16 12 2 15 19 -6 22 29 105 7 50 77 32 29
121 100 162 188 121 103 122 142 130 125 127 123 116 112 102 124 104 102 99 107 69 70 10 45 81 75 104 116 28 -6 2 1 -6 -10 29 5 -4 19 -0 19 1 27 13 30 25 33 66
69 77 74 151 193 111 107 141 145 155 144 149 162 149 129 117 63 102 156 149 105 111 13 82 75 83 170 63 30 42 18 38 -2 -0 23 6 31 46 4 19 3 14 13 55 58 35 59
120 76 71 55 131 211 109 124 164 167 181 147 188 176 176 135 56 68 90 151 112 69 101 93 85 82 93 126 -37 58 58 50 32 -16 -16 33 43 71 53 19 34 43 36 42 65 71 24
140 141 80 59 5 150 152 122 150 177 169 175 210 207 175 138 94 154 134 150 65 15 62 94 60 96 79 139 -9 4 33 58 18 26 3 -2 38 43 65 14 23 39 39 66 18 35 45
126 135 129 81 50 21 124 145 131 158 199 202 220 267 207 156 131 165 202 124 5 152 60 115 95 149 69 50 65 31 33 26 -8 17 -33 -15 24 47 44 47 44 41 61 39 88 93 78
118 146 123 122 65 -18 74 110 141 107 204 243 314 319 232 159 173 242 211 105 179 117 139 140 91 110 88 56 73 118 90 12 -48 52 94 23 18 49 91 45 52 59 57 73 92 78 53
124 148 141 113 81 -21 141 144 138 62 162 221 357 434 245 219 243 317 216 147 162 86 80 153 169 129 49 72 59 77 78 -4 12 54 103 107 81 36 53 46 25 117 201 136 102 95 63
122 150 189 131 92 45 139 145 131 73 152 259 446 458 251 308 392 318 211 267 261 57 30 104 156 177 102 46 65 9 -46 -62 2 118 115 89 94 81 58 60 51 99 61 64 86 86 93
155 176 230 163 127 115 204 202 161 101 130 417 507 532 149 291 429 258 271 173 204 120 42 28 125 146 128 39 66 8 24 34 46 88 102 127 109 136 99 68 59 51 49 76 108 135 110
124 196 266 193 141 112 160 138 107 75 95 287 636 619 376 286 250 285 257 211 175 116 116 139 120 159 156 113 49 30 32 84 56 66 111 229 139 129 100 65 83 72 59 77 102 102 73
84 220 282 217 144 96 111 162 87 98 59 235 532 550 549 425 172 287 247 232 139 116 73 109 79 103 200 171 130 92 165 155 136 113 133 152 148 122 68 81 99 92 82 115 118 100 131
166 219 294 232 160 113 91 163 87 107 99 168 498 566 428 445 321 307 265 147 117 91 95 116 62 33 113 138 147 99 142 144 119 175 142 167 137 148 109 158 172 129 101 99 126 111 97
92 303 296 238 175 128 139 119 124 111 157 146 241 342 469 328 214 307 41 190 174 111 103 121 96 72 135 129 143 111 132 152 126 184 182 179 196 187 141 190 179 156 128 127 110 152 140
74 327 282 235 167 152 163 105 67 82 78 243 264 246 442 208 263 135 174 213 149 98 146 48 111 102 53 13 92 140 210 283 270 302 212 213 228 219 140 215 67 111 137 108 124 157 171
287 300 298 182 142 165 141 37 8 65 90 142 165 114 403 238 207 129 143 127 133 57 65 87 129 97 103 134 188 284 291 263 251 283 250 180 220 213 216 204 171 122 105 113 126 132 136
277 331 192 164 150 168 135 45 46 89 -59 26 259 58 206 399 108 183 78 127 130 109 79 57 43 50 156 182 176 260 278 233 219 261 249 243 248 215 232 189 155 76 104 168 122 144 90
296 265 180 152 156 142 130 96 83 -24 -147 37 119 174 62 256 276 136 153 75 107 116 70 79 94 117 204 240 243 205 273 233 232 196 212 274 275 222 253 204 172 112 104 149 174 62 195
227 131 112 110 112 108 88 67 83 -34 52 103 125 230 117 190 223 215 210 137 127 111 130 60 141 149 283 231 190 211 248 260 274 201 201 226 248 228 265 245 138 130 204 163 80 166 153
91 71 79 92 67 58 54 60 3 39 83 44 -84 122 141 184 226 183 220 126 105 101 155 120 141 113 178 225 213 201 254 312 274 216 232 203 196 175 145 78 109 59 118 108 69 88 105

GFSGBSN_con_3kmhel_030.txt.gz
Helicity
63 71 72 69 76 81 82 77 72 88 104 100 76 61 52 48 43 40 46 55 56 45 35 28 15 16 30 38 32 9 46 55 35 7 -17 10 -1 -1 -1 20 7 32 29 -1 14 5 -1
69 55 58 64 58 60 58 67 76 67 82 84 80 74 61 57 56 49 51 52 52 39 33 26 20 10 36 46 28 0 41 28 19 5 -8 9 16 3 24 32 10 7 25 13 15 2 -17
75 79 61 52 53 50 48 47 59 68 65 59 64 67 58 62 57 54 56 59 55 35 29 24 25 16 43 38 26 -26 14 0 30 11 9 -5 -2 -12 2 64 33 9 25 33 8 -23 -25
88 72 75 76 58 47 43 43 31 44 48 42 41 56 59 60 56 52 67 72 63 41 31 28 34 24 30 -2 -36 -76 14 -17 8 -12 -31 -11 -1 -18 -20 56 52 19 13 19 25 -8 6
130 97 91 70 81 68 55 36 40 25 27 29 14 2 26 46 47 53 71 75 67 41 34 51 49 49 26 -1 -15 -45 46 -12 25 12 -11 -1 19 13 39 62 47 72 38 35 7 18 -38
159 175 101 118 83 74 83 68 50 49 40 34 39 48 9 23 39 39 66 80 53 45 46 55 67 67 25 88 54 -41 -27 -7 13 39 1 7 40 33 70 66 26 45 66 40 2 -1 105
115 150 147 113 104 106 71 81 82 69 60 71 82 104 70 31 34 52 64 67 101 68 70 58 61 47 57 95 -9 -31 -22 16 5 16 5 -12 -7 -29 -12 45 31 48 28 21 28 -11 27
128 108 160 174 149 94 121 97 82 92 88 84 76 93 100 82 71 78 70 102 85 50 35 42 49 11 2 45 39 -2 2 34 17 10 -3 -32 -26 -18 36 36 39 23 15 44 35 4 -10
85 119 143 143 161 172 83 128 127 86 106 88 104 113 132 89 93 86 86 75 88 54 21 -15 72 54 63 79 13 5 13 27 39 5 10 -4 -14 21 43 36 17 47 38 65 41 44 39
84 85 97 125 157 135 140 87 118 125 97 103 104 108 127 93 59 68 53 53 29 37 98 49 51 45 138 113 31 5 -14 41 40 0 7 -17 3 18 28 36 23 44 -4 18 25 43 17
87 81 84 80 119 153 172 125 88 123 120 110 108 127 130 107 116 95 88 68 53 43 170 78 72 88 134 199 82 22 -7 46 55 21 7 -21 -26 34 19 9 26 59 24 17 33 48 39
81 107 108 78 65 95 145 164 130 112 145 128 110 149 166 147 117 78 112 104 71 194 162 116 61 125 200 140 93 153 63 49 -14 30 15 -26 10 6 0 15 37 29 22 36 62 61 40
91 85 116 116 88 60 65 139 170 126 142 167 149 170 192 163 106 62 78 200 121 122 129 103 63 98 126 148 80 112 114 125 124 72 -29 -4 28 43 33 56 53 29 50 43 57 66 -8
94 100 94 120 129 92 53 38 138 118 127 179 165 208 224 172 128 142 133 219 138 73 122 79 133 110 85 116 -28 91 148 158 80 67 26 29 -31 38 53 41 27 50 48 52 37 36 25
72 75 107 99 128 133 72 48 42 82 68 168 182 248 258 188 158 177 216 194 161 173 88 -2 60 146 129 71 91 107 68 153 122 86 42 35 -10 42 59 75 62 39 78 51 82 73 64
90 78 75 114 139 135 124 64 -28 75 103 83 255 271 231 239 189 257 267 163 194 185 107 83 74 91 80 81 132 112 115 118 113 57 16 -17 -3 30 63 61 57 65 41 76 91 55 17
115 98 75 91 124 147 145 109 -23 61 102 64 234 344 169 266 289 333 238 242 156 173 110 109 118 186 84 104 67 123 124 120 96 50 43 46 41 -10 24 35 48 69 62 118 112 126 49
108 115 93 90 139 182 156 122 75 99 112 166 357 360 123 327 411 286 234 340 221 74 129 99 109 152 119 84 128 117 104 67 89 126 74 56 54 -25 1 58 55 59 29 111 188 129 128
107 104 95 101 136 233 173 136 89 58 176 305 347 391 108 281 457 264 270 189 264 100 56 52 78 108 153 96 111 95 41 46 106 89 56 86 59 -35 56 98 93 69 108 111 114 114 86
90 109 88 94 119 257 191 114 84 142 209 236 384 438 248 245 249 241 315 204 159 135 88 125 93 62 123 135 95 45 45 14 11 -2 55 199 108 87 51 39 75 89 120 108 130 120 121
106 78 94 84 135 297 204 112 65 122 161 270 367 403 471 406 215 220 245 280 182 155 119 122 112 67 84 116 118 65 75 76 82 57 89 115 59 89 114 95 91 87 108 85 112 92 131
107 88 84 91 96 333 220 116 166 210 101 280 392 457 391 382 236 318 301 193 124 127 108 165 149 73 53 123 124 129 69 101 86 90 128 155 99 100 114 128 136 124 87 103 107 136 127
86 70 88 91 77 337 203 223 280 295 263 546 300 472 508 283 203 280 208 292 238 135 102 58 100 127 131 34 80 153 136 61 87 115 169 181 176 115 34 148 153 106 105 150 194 200 184
67 39 85 100 85 425 189 209 196 135 80 403 229 473 443 285 249 127 193 329 228 192 172 125 110 74 82 36 38 24 104 124 145 161 169 256 250 190 84 198 64 127 184 175 175 125 142
56 58 72 60 219 376 173 213 197 69 17 300 258 329 429 238 138 169 177 106 306 174 105 99 91 102 85 109 65 97 158 180 220 244 222 198 260 205 161 160 164 160 202 195 152 81 105
41 7 -3 2 540 272 167 175 136 69 27 162 206 211 212 391 105 92 142 147 164 213 151 68 124 82 123 150 160 159 178 198 222 297 225 224 228 182 210 158 147 133 155 216 217 144 136
47 10 144 354 285 173 152 139 99 63 114 173 241 128 64 155 220 177 149 124 159 163 133 92 105 111 118 207 171 162 194 188 235 272 266 292 281 203 262 202 180 137 166 218 242 132 201
17 239 336 277 187 143 114 87 65 64 41 86 144 114 -3 -25 139 268 233 184 190 110 159 79 110 116 171 198 210 202 197 180 248 248 293 274 259 219 267 231 168 209 329 297 150 108 158
281 272 271 145 132 125 129 88 77 100 48 163 99 46 214 114 69 79 175 255 179 148 114 138 153 151 169 181 260 237 225 290 269 280 312 256 220 184 182 172 179 176 161 138 105 97 84

GFSGBSN_con_3kmhel_033.txt.gz
Helicity
73 76 71 66 67 70 67 73 83 85 81 83 90 94 82 64 62 62 59 56 53 45 32 28 25 19 26 51 37 21 51 63 23 -14 1 34 17 -4 -1 7 22 39 31 11 7 23 -10
71 77 74 68 66 68 70 60 58 63 74 79 82 84 89 78 73 77 76 73 66 52 32 24 23 21 32 62 39 26 43 34 8 -3 6 29 20 -2 -7 12 25 10 16 -3 1 21 -21
119 68 77 85 74 61 61 71 63 59 57 62 68 66 84 92 86 75 79 93 86 65 40 24 23 18 53 52 37 10 7 4 10 13 19 9 9 -4 -27 -8 5 5 15 -57 -27 -23 -31
126 127 107 79 91 88 65 56 64 72 58 55 58 51 56 68 73 89 85 89 80 75 51 26 34 29 41 32 4 -19 -16 -20 -20 -36 -20 -4 8 -7 -41 15 30 15 20 -22 38 -19 -34
113 126 140 145 76 98 96 90 60 57 81 63 53 49 41 34 35 53 72 102 96 62 30 43 53 51 34 39 31 -15 24 4 7 0 -9 -12 1 -2 6 -10 7 56 28 -1 -15 6 4
124 140 131 139 141 113 85 102 91 65 59 86 70 54 41 34 42 27 46 87 85 64 50 53 78 88 48 81 112 33 -11 0 12 28 21 -3 -13 -10 -8 -13 -59 34 46 29 -7 13 19
86 97 145 162 136 148 138 70 94 95 66 69 75 73 67 89 87 56 57 44 48 62 76 104 123 95 64 96 83 26 24 34 14 24 25 2 -1 4 -1 -23 8 35 10 18 1 21 25
55 71 76 101 145 169 156 128 81 101 99 81 80 93 126 150 161 79 75 52 30 45 76 98 49 32 22 69 94 53 51 89 33 31 22 1 10 -9 38 28 19 42 19 10 7 24 -37
56 62 53 63 78 116 163 193 180 86 101 104 105 105 120 146 124 86 87 84 78 90 38 2 90 50 52 64 35 50 83 64 48 54 15 2 -4 4 15 17 10 37 18 -4 23 19 6
75 70 70 62 67 80 93 139 184 156 84 99 103 128 143 189 104 82 102 59 41 74 61 49 72 58 99 97 37 61 79 103 54 40 29 -26 -36 -7 3 0 17 25 -1 33 30 26 41
83 93 91 95 80 70 87 82 115 195 118 100 89 132 157 173 205 100 108 102 39 73 136 70 119 102 96 178 92 87 98 117 73 75 52 -6 -10 -25 -12 1 31 16 10 33 34 45 50
84 69 85 81 107 96 86 77 69 89 227 87 117 111 167 216 158 141 140 189 128 152 178 126 68 116 161 162 129 276 172 121 56 68 37 21 -13 -12 -22 23 28 24 44 63 63 62 42
82 75 54 59 83 110 106 90 71 51 146 118 123 114 155 236 174 105 132 255 176 202 156 149 94 81 124 188 210 217 186 173 126 126 46 32 19 18 32 43 50 57 73 40 41 78 61
96 97 82 72 72 97 114 110 77 52 56 149 79 150 168 211 222 198 204 226 210 129 137 97 118 84 111 126 205 213 196 147 118 129 67 42 24 21 28 15 19 61 53 52 23 39 39
115 105 104 105 92 94 121 124 100 77 32 155 56 126 174 225 217 275 303 229 164 173 132 49 30 162 114 104 140 196 145 103 125 141 93 106 29 21 33 74 67 61 75 69 89 57 27
109 111 99 108 114 119 122 131 126 98 73 28 235 130 138 177 210 278 322 171 181 152 202 114 108 87 66 91 120 134 126 81 116 86 87 32 61 25 41 62 101 69 61 76 86 28 18
135 110 116 89 106 128 142 137 134 109 102 57 263 237 -35 128 173 304 275 170 176 263 163 139 140 113 118 98 111 136 87 103 132 108 112 90 53 50 46 36 44 89 83 100 72 72 57
143 147 124 109 84 114 144 150 153 133 102 58 313 346 10 70 334 324 164 231 327 160 210 183 72 65 72 61 115 130 96 86 116 198 133 75 62 24 34 62 50 71 77 94 60 33 142
61 121 114 112 104 113 127 166 187 148 118 225 344 264 122 119 360 257 92 170 255 226 143 178 91 98 115 114 115 103 96 94 161 201 179 127 92 76 24 46 88 63 88 110 140 130 131
109 107 99 133 102 125 141 199 234 157 124 213 333 314 278 283 226 158 165 138 167 232 193 188 145 129 107 117 118 113 89 115 91 108 92 183 104 96 32 25 90 66 91 124 148 130 112
105 119 94 111 97 109 171 231 249 165 153 326 417 426 379 507 271 174 158 125 232 218 206 200 117 117 71 82 123 104 74 107 112 81 83 120 80 96 62 52 96 64 81 89 142 154 157
100 121 102 124 110 83 152 247 261 174 149 217 433 489 397 273 285 196 220 97 64 209 209 177 135 69 82 82 86 84 73 59 63 111 79 114 99 121 73 77 61 55 59 98 111 147 107
87 108 82 84 41 87 113 286 299 186 203 295 384 430 380 235 305 282 159 153 93 136 207 138 177 174 81 21 36 70 97 168 72 59 83 144 199 165 99 124 108 3 44 109 150 155 156
64 52 51 83 76 86 112 367 312 199 178 354 336 487 333 218 295 251 98 165 109 112 140 189 79 84 111 84 11 -26 -18 45 94 95 100 93 169 211 162 205 44 70 115 107 102 128 182
58 67 28 80 78 68 128 372 304 139 170 398 327 371 370 190 162 191 95 -18 203 97 88 115 212 95 94 52 -24 14 56 62 71 108 126 131 181 173 186 135 134 81 121 146 153 26 181
56 39 52 80 83 67 84 380 206 107 211 307 302 415 293 135 142 143 54 18 71 195 125 169 233 209 170 148 117 31 61 143 152 124 150 172 163 163 168 131 69 97 119 176 193 82 217
39 41 45 64 67 77 77 353 120 96 249 412 351 350 372 214 149 146 149 77 51 133 142 235 244 209 141 137 112 91 137 173 193 171 177 245 251 219 263 174 121 149 165 204 211 147 109
21 16 34 59 76 57 216 234 122 159 291 382 360 345 252 172 96 100 264 140 161 68 195 214 247 164 221 160 134 107 140 209 149 116 185 241 260 255 289 218 84 168 271 242 194 146 126
0 23 27 60 52 85 330 173 170 151 103 346 309 199 199 94 73 117 106 248 234 105 160 155 204 180 256 217 213 154 144 201 218 145 156 210 212 253 200 202 201 119 152 211 198 138 98

GFSGBSN_con_3kmhel_036.txt.gz
Helicity
83 60 65 63 65 62 66 75 67 67 68 78 77 83 93 93 78 57 55 67 65 61 58 51 53 48 18 30 39 52 50 46 36 14 27 26 13 3 -3 -11 -3 19 34 23 13 7 -12
112 116 74 63 61 65 58 68 72 75 67 67 79 83 89 91 84 79 68 70 78 72 57 54 47 34 15 51 58 44 45 33 23 19 30 8 -12 -17 -1 -24 -4 -14 18 -34 17 10 -3
99 105 119 121 79 65 71 76 70 65 84 75 70 77 90 93 97 85 77 74 71 73 64 57 50 18 34 30 35 40 26 10 -3 8 32 -4 -15 -8 8 -14 -7 -8 -5 -60 -72 -29 -6
105 102 102 126 116 132 74 73 80 65 64 90 75 70 82 96 103 80 67 63 77 68 57 52 46 26 43 55 25 28 8 9 13 -18 -6 -18 -18 -32 -18 -2 2 1 8 43 41 12 -5
76 76 95 109 127 132 144 86 78 82 71 76 91 67 72 84 86 68 50 42 42 40 33 47 42 46 48 81 46 -5 -2 20 1 -11 -19 -23 -24 -44 -35 -34 2 14 15 -3 22 46 39
62 65 70 68 85 129 129 142 101 79 82 65 73 76 74 80 82 59 48 29 33 22 37 50 91 77 55 58 91 70 4 12 22 24 5 -9 -14 -25 -6 -31 -14 18 9 -1 9 -33 60
42 48 45 55 61 58 88 145 146 117 85 77 74 83 79 87 89 75 49 37 39 43 39 73 113 110 108 85 93 70 60 35 29 12 30 13 -4 4 -4 -9 24 5 1 18 25 15 25
43 40 39 50 51 56 54 55 114 187 96 100 83 83 93 113 107 90 53 32 69 78 58 18 16 21 12 85 125 74 64 71 41 25 31 16 13 -21 -8 15 -5 -8 -3 11 11 26 3
61 57 51 49 52 54 57 56 60 120 212 102 118 82 97 136 153 99 61 40 73 60 -0 -43 42 97 101 97 84 85 73 65 18 21 22 2 30 8 4 -5 -4 -8 -14 19 27 29 -12
84 100 98 82 73 74 66 68 61 66 102 184 110 104 108 155 142 99 83 75 48 19 -3 -21 59 99 123 127 99 64 50 54 56 15 6 -8 4 -6 -5 -19 -10 -9 24 36 25 6 18
42 73 81 79 104 106 100 83 72 66 86 105 154 91 107 137 294 141 131 117 77 42 86 70 93 121 106 167 146 106 78 86 19 58 50 23 9 4 -10 -24 3 15 2 22 43 25 35
82 71 59 88 96 93 123 117 95 85 81 77 118 89 81 183 203 188 152 205 138 118 159 105 68 85 121 110 149 165 172 133 70 45 10 21 24 -6 -29 -29 -19 54 4 21 36 30 17
98 94 84 87 87 106 92 115 115 97 96 78 60 145 42 153 232 207 201 232 184 210 147 114 89 71 59 124 148 125 194 122 125 113 77 25 23 63 1 11 -2 -6 24 26 21 32 13
92 93 90 85 90 95 113 94 116 94 104 84 63 114 93 60 203 293 229 294 261 147 129 95 133 72 94 93 118 140 119 112 18 57 33 49 54 39 30 9 11 -0 3 37 45 30 37
129 115 105 93 89 96 102 118 118 128 95 89 58 148 147 121 152 257 320 325 232 131 106 152 78 151 158 91 133 138 104 94 86 101 76 48 17 77 41 24 -1 35 -13 69 75 76 47
121 127 141 118 108 106 111 123 131 118 115 87 104 163 161 113 182 278 381 270 169 167 132 121 107 117 157 109 125 114 133 61 50 78 36 79 49 67 70 51 53 49 74 63 95 68 45
107 141 128 151 135 125 125 123 134 125 116 96 153 152 170 96 173 372 424 194 54 122 144 209 130 113 90 115 84 97 133 139 74 78 58 79 73 94 73 47 48 68 48 105 96 99 63
182 151 96 107 154 145 133 122 127 155 132 155 273 235 110 174 329 447 380 118 115 84 172 261 222 104 95 88 83 81 58 71 29 98 88 86 80 69 55 71 29 -2 8 15 27 78 69
101 84 85 89 147 153 141 145 142 162 183 291 370 314 93 155 269 417 272 120 173 202 116 137 122 119 109 104 114 69 49 60 82 44 55 156 126 78 58 53 44 26 26 42 97 96 32
74 108 114 85 70 137 137 152 158 204 197 292 484 461 265 145 143 165 249 167 165 149 158 80 97 103 105 100 145 95 87 42 78 64 96 132 82 68 50 54 50 39 29 21 29 -17 42
68 62 63 66 79 47 64 154 191 242 240 431 496 489 481 367 181 116 121 228 183 139 136 164 113 80 140 151 123 113 95 81 72 108 113 114 57 57 41 22 25 8 -13 -2 -14 3 -31
46 64 74 75 90 96 74 108 204 296 272 504 524 511 361 272 156 146 185 151 129 57 147 132 93 89 127 98 139 145 119 143 102 82 87 92 76 56 26 29 27 -10 -21 -18 6 5 63
54 87 82 95 93 87 98 109 210 329 326 510 420 351 332 348 108 130 153 194 136 85 55 135 83 105 84 72 127 126 162 203 224 114 73 106 114 102 27 60 66 53 -9 11 10 41 52
90 74 125 112 93 100 92 86 152 342 351 500 344 291 437 263 180 124 88 186 133 108 109 132 248 87 94 67 53 31 11 20 82 172 111 77 91 100 63 101 57 24 87 1 10 -5 25
9 6 63 115 78 97 73 67 62 343 367 433 355 312 374 318 119 69 62 163 162 73 131 113 133 124 59 85 110 -9 34 12 33 86 110 86 91 123 131 82 60 75 122 121 83 7 41
-4 22 56 114 58 108 86 85 98 250 305 404 288 351 360 241 116 66 122 71 157 159 150 146 174 156 172 106 147 26 20 -5 127 71 121 117 142 126 146 110 54 43 80 84 103 2 21
1 14 32 52 78 69 101 95 117 278 218 371 317 283 301 148 128 100 122 104 28 78 124 138 216 289 171 96 121 56 29 112 39 139 116 160 159 131 125 130 112 117 129 133 79 61 84
12 29 51 58 -12 29 53 117 102 206 222 411 274 282 204 166 141 178 176 80 39 -35 140 178 200 260 209 111 169 54 74 59 61 29 109 120 147 177 175 155 88 159 210 180 126 77 67
21 16 19 33 42 69 81 48 393 128 210 372 325 288 230 154 137 187 125 140 150 57 57 142 233 196 200 140 154 176 70 87 82 15 138 64 134 157 118 125 130 150 101 77 100 85 116

GFSGBSN_con_3kmhel_039.txt.gz
Helicity
89 110 119 99 69 63 62 58 63 71 74 58 56 66 80 87 94 78 67 49 50 52 50 40 46 81 50 39 25 113 70 68 39 13 9 18 -5 -9 -12 -3 6 14 -17 -15 -3 23 15
81 99 109 115 128 92 68 64 66 66 61 75 70 60 59 76 89 78 72 68 58 62 47 45 54 63 19 28 85 66 58 53 23 18 11 -12 -32 -41 -59 -22 -32 11 -17 -18 -43 -29 -1
64 71 84 105 115 113 124 96 75 68 60 57 76 72 61 67 64 63 68 62 69 61 50 50 58 38 26 22 69 54 46 23 10 11 9 -9 -48 -41 -21 6 -1 -11 12 30 -1 -20 -6
89 81 73 78 81 96 103 112 100 76 82 68 63 73 70 60 61 55 46 47 55 53 45 38 46 30 33 56 48 41 49 29 3 3 -1 -20 -39 -51 -41 -34 2 14 39 55 81 -20 15
83 86 86 92 85 75 85 92 106 102 82 85 80 74 76 60 65 53 48 35 46 38 31 31 43 57 57 99 51 32 31 33 35 20 4 -23 -38 -31 -5 0 22 54 19 39 67 -18 19
61 68 73 79 88 90 85 81 99 102 110 98 90 80 75 71 79 70 57 34 40 62 10 28 56 73 69 48 64 69 25 30 46 29 11 -4 -10 -8 27 -8 -8 -3 20 31 81 -7 13
37 39 47 58 68 64 62 72 78 102 101 110 89 96 87 74 96 90 90 55 25 14 18 50 116 44 107 70 69 80 60 55 26 35 31 36 13 18 0 23 -25 -16 -13 1 33 4 -20
35 32 27 33 44 51 57 56 69 83 91 90 98 94 92 81 115 114 81 68 94 90 36 20 15 8 23 71 75 60 94 103 55 35 20 -5 36 -8 -13 -47 -31 -34 -20 -15 30 49 7
51 57 53 44 38 39 53 65 68 76 73 81 135 80 98 87 142 109 48 50 87 45 0 -9 16 14 28 26 42 71 116 87 61 10 4 5 -5 40 -15 2 -3 -18 -28 2 8 24 -4
74 75 69 61 60 66 71 71 74 80 80 84 47 135 60 103 126 109 64 61 54 15 -3 20 7 62 47 87 71 14 80 69 48 10 -4 9 -14 19 3 -10 -2 10 12 49 29 3 21
40 51 61 63 69 77 92 114 91 86 89 87 98 74 63 37 351 236 247 131 55 28 72 87 139 172 103 163 137 98 67 13 29 24 12 18 2 24 -13 -18 8 -32 -13 18 13 -10 33
46 58 61 56 58 71 79 101 110 110 97 92 94 68 102 47 126 200 356 188 78 154 130 84 86 39 89 52 36 54 78 -15 -11 0 10 -25 31 16 -6 0 -30 -29 -2 3 2 -18 18
53 62 70 72 73 78 79 83 103 108 124 96 76 108 93 96 57 160 223 244 268 294 143 119 118 28 35 63 30 93 92 70 48 70 41 4 38 -1 -31 0 10 -20 0 5 16 14 1
53 59 67 77 82 86 87 86 91 92 106 114 92 119 81 125 97 176 287 356 393 273 204 122 59 79 55 53 38 90 74 87 24 32 65 50 50 15 49 -28 24 45 -11 -7 57 -5 42
51 73 66 74 99 96 90 100 110 104 81 64 87 130 126 105 75 168 306 354 306 200 34 117 127 112 98 58 74 67 40 58 50 20 17 41 2 53 33 21 -35 -14 25 -13 -40 52 39
31 31 104 106 114 123 106 109 101 111 78 63 144 140 133 94 51 143 378 337 149 176 62 51 103 109 116 89 78 69 44 34 19 12 -3 21 24 67 74 32 -12 -66 13 -23 -34 11 16
45 75 96 138 149 148 146 129 120 113 91 73 130 232 157 145 73 211 421 333 204 152 47 52 109 104 99 51 49 67 61 52 12 36 -24 -35 53 94 116 61 24 31 -16 -20 4 -12 26
89 92 99 148 135 164 153 147 123 131 100 108 255 262 157 211 260 307 306 273 130 106 80 83 67 47 48 13 58 52 48 28 56 8 56 -18 44 80 74 10 7 10 35 4 5 -10 50
71 145 143 112 107 95 119 135 139 158 149 228 371 377 149 233 397 313 178 125 133 164 139 103 97 72 71 77 66 68 28 29 67 31 51 -3 25 77 32 87 59 11 -20 0 -7 3 20
124 115 101 114 162 118 139 102 129 197 200 263 408 522 372 177 195 198 167 161 42 154 122 128 72 73 87 27 71 92 57 45 114 80 12 28 64 76 75 30 60 50 10 -7 10 17 24
95 96 104 108 119 111 108 94 98 246 249 321 454 550 605 499 312 202 140 125 98 188 100 95 131 89 50 60 64 45 63 73 117 84 96 23 46 45 24 18 10 20 39 33 -1 -4 17
82 75 83 89 100 113 119 118 100 262 266 429 548 491 441 283 273 194 156 109 90 68 130 137 133 91 60 79 49 101 138 156 74 71 99 89 113 45 44 25 19 14 15 17 -11 22 9
58 68 76 82 83 77 84 103 109 286 334 480 537 317 246 281 124 215 145 74 36 76 61 79 82 67 88 73 82 67 245 294 174 265 76 95 115 100 69 45 33 30 2 23 5 -12 16
34 30 44 62 83 81 83 78 71 80 311 493 560 390 269 198 247 143 104 80 46 58 115 100 65 86 81 70 11 22 106 223 208 248 258 199 154 93 91 129 76 53 5 9 15 -28 -9
67 74 67 71 75 84 89 82 45 75 371 479 434 399 315 201 111 114 56 61 53 41 72 85 59 54 76 84 23 48 1 34 33 46 200 194 108 118 87 91 80 36 5 34 14 18 -7
95 78 66 73 70 94 89 89 77 79 342 441 263 378 319 153 119 58 71 56 95 77 93 103 41 88 106 151 113 68 88 24 51 -31 129 360 101 104 114 58 27 34 20 34 11 -7 10
45 34 40 72 100 104 111 83 102 102 229 416 401 267 342 170 93 28 72 79 62 65 185 125 113 110 105 163 116 89 36 32 122 -49 41 111 141 130 99 104 67 53 5 57 75 -30 39
20 3 7 1 102 79 94 90 91 128 273 529 345 228 269 172 109 111 47 119 37 89 161 160 177 167 159 171 105 74 73 80 73 68 27 45 254 211 116 81 33 96 121 102 87 -27 52
12 42 38 57 58 57 85 109 63 87 309 290 290 247 312 217 204 197 217 247 68 -2 62 115 134 134 198 160 145 136 137 132 92 111 25 -24 44 133 115 105 74 72 60 40 13 32 46

GFSGBSN_con_3kmhel_042.txt.gz
Helicity
54 57 69 70 82 99 87 64 71 68 63 62 70 66 59 57 64 59 51 49 50 49 34 32 38 62 49 45 32 84 76 79 59 33 9 3 0 2 12 -9 -6 32 15 -32 -10 -42 -23
38 39 48 60 75 83 81 93 97 77 69 63 68 62 60 45 48 54 56 46 51 49 39 36 50 60 15 38 39 102 48 75 27 26 14 -9 -16 -27 -62 -30 -34 -10 -14 -6 5 14 -2
69 79 75 63 74 91 87 62 65 89 77 62 66 65 63 60 51 42 50 49 39 42 39 39 50 38 25 48 43 94 47 33 12 28 14 -1 -32 -35 -44 -40 37 -6 2 14 -14 26 71
69 66 61 69 68 68 73 83 81 70 76 75 68 75 59 65 60 44 49 41 25 20 30 35 50 45 31 23 31 24 40 18 4 8 -2 -38 6 -35 -39 -46 -10 15 46 70 100 17 135
69 65 58 54 60 62 70 79 83 87 73 84 75 72 74 65 61 60 58 38 13 -1 13 36 43 47 37 62 48 16 28 31 26 18 12 0 6 -13 -29 14 27 48 65 40 26 56 58
59 56 43 54 65 65 65 66 68 77 84 86 90 84 73 70 64 81 66 89 9 57 15 -4 38 48 58 35 26 27 19 8 45 41 34 22 16 -4 -5 -6 4 7 0 -13 -11 74 5
40 38 42 46 54 55 51 59 54 64 71 82 82 88 86 68 67 107 101 69 13 11 3 56 139 73 159 16 62 23 35 35 10 43 49 28 28 16 7 24 28 -21 -7 90 78 21 19
32 29 29 29 35 36 38 47 51 53 63 61 72 71 93 73 71 96 110 91 124 124 53 39 53 29 -6 51 76 26 44 79 62 59 36 12 54 2 -2 -19 -10 -38 -36 19 44 64 47
39 40 34 31 28 36 39 42 54 58 59 65 72 80 101 77 76 76 74 29 152 92 20 -35 24 35 14 20 -3 32 45 57 77 20 32 31 4 24 88 -2 -8 -20 -46 -21 69 42 31
47 49 52 44 47 58 57 55 57 58 72 70 76 89 89 90 80 57 81 58 39 61 23 17 29 46 36 51 47 -24 6 35 29 26 -1 4 6 -44 23 -6 -13 -3 -10 -59 24 17 -10
58 57 66 75 78 70 67 67 63 66 78 82 79 89 91 70 254 200 257 410 138 93 79 25 63 146 80 94 161 52 -47 60 28 14 43 -12 -36 1 29 -5 -9 -18 24 -93 -43 -21 -1
54 53 54 53 51 60 68 68 69 60 71 85 85 75 99 120 99 68 232 270 175 225 134 106 117 113 69 39 25 61 38 41 13 -15 -2 -24 -30 5 29 -14 -35 -3 72 23 -1 -25 -47
39 41 37 38 46 59 65 73 71 70 64 77 82 85 101 114 91 148 133 206 265 325 176 180 138 95 43 36 19 25 91 85 94 52 17 -1 -56 13 28 -8 3 14 -37 -6 -10 -7 41
35 33 32 38 44 46 50 57 71 83 80 71 72 75 80 92 60 154 97 324 409 303 259 81 64 52 84 17 26 20 50 92 72 11 54 30 50 -53 28 -35 21 46 -6 9 38 -70 -124
37 30 30 32 40 50 57 62 71 75 92 65 45 94 98 111 56 99 221 309 359 278 19 94 28 101 54 48 60 56 79 123 72 1 60 39 0 33 27 39 -63 12 13 -28 144 50 -11
29 28 23 24 27 42 57 73 86 85 79 56 119 129 104 74 62 120 223 267 134 196 122 -18 64 119 120 55 70 79 57 87 69 26 -69 -18 66 -30 71 63 27 -68 -1 -35 67 -12 -2
7 13 19 25 43 49 47 67 92 97 73 61 160 188 168 74 108 200 233 193 124 140 162 59 76 80 53 56 45 43 59 36 31 33 1 -16 73 48 -22 77 58 57 27 24 -32 5 -35
2 22 27 19 10 40 58 73 112 122 80 102 252 243 114 185 231 325 227 205 55 70 192 104 69 66 72 -8 40 48 17 26 24 17 22 11 84 70 20 46 85 26 34 18 -27 44 32
9 17 49 29 39 51 77 75 111 140 135 233 389 378 125 241 331 321 207 50 3 88 102 157 112 46 69 80 71 16 20 51 36 70 27 122 76 104 92 14 41 51 -40 31 1 14 17
35 19 72 69 91 84 68 57 86 111 146 246 468 538 422 208 198 211 236 97 49 27 19 107 97 100 164 88 56 89 100 48 55 74 82 92 168 104 131 91 57 25 15 66 83 9 56
80 90 58 140 121 110 129 61 58 95 166 290 389 565 603 493 294 176 148 138 51 80 71 83 137 75 128 193 53 171 166 204 75 221 120 130 129 85 76 21 19 58 21 -9 46 37 68
118 117 106 99 100 100 91 74 104 100 194 306 484 526 425 394 215 189 165 95 44 79 127 89 106 136 77 106 49 57 100 61 100 90 147 147 157 135 29 62 35 42 36 28 41 13 15
57 62 73 77 85 83 80 60 78 85 225 309 438 299 264 305 222 261 179 83 38 56 45 54 67 148 89 59 61 45 147 97 129 373 109 137 199 135 135 71 81 28 -29 25 18 22 41
53 58 68 78 91 104 105 81 57 63 96 279 501 419 455 344 333 218 135 82 42 68 52 30 -14 34 104 112 199 159 24 90 74 243 330 231 143 110 143 145 79 76 36 61 51 65 61
49 45 53 65 78 92 110 105 79 76 106 182 189 432 461 444 175 172 73 85 68 60 45 34 0 64 41 62 68 47 -24 -7 75 119 251 478 371 339 243 167 116 94 76 95 104 63 -1
24 40 52 69 84 104 93 105 98 86 93 212 172 173 520 365 294 56 122 82 107 94 95 53 -14 58 73 65 56 129 187 -28 -19 139 28 241 406 322 253 211 123 130 95 24 5 39 40
35 47 45 53 39 129 117 108 101 100 105 215 187 163 426 344 238 199 120 81 58 67 68 73 40 118 94 99 0 26 72 126 -15 -142 48 -30 203 313 276 230 186 104 53 40 39 29 8
29 34 44 44 59 101 71 102 103 99 93 245 163 126 414 393 172 231 207 31 44 45 81 68 100 116 158 123 95 94 11 64 98 56 48 29 87 175 169 231 155 105 53 31 37 11 62
26 15 9 11 59 51 55 85 81 94 109 233 158 216 261 269 262 249 81 77 88 136 62 67 96 121 249 135 134 158 174 95 86 117 91 29 64 76 108 211 276 243 41 45 62 62 46

GFSGBSN_con_3kmhel_045.txt.gz
Helicity
74 30 39 54 37 33 46 54 67 72 67 53 57 50 43 49 61 54 52 64 70 57 50 47 52 60 22 52 40 77 78 63 72 78 40 19 25 15 46 -4 11 -3 43 -8 -47 -47 93
83 76 73 7 42 39 39 33 43 41 47 47 47 48 57 52 46 55 41 52 56 56 50 53 62 70 14 27 62 119 36 64 46 70 21 14 18 13 5 -78 -85 -59 -69 -12 -22 27 41
105 70 49 40 24 13 47 51 44 37 32 42 42 37 41 54 52 51 49 46 42 42 40 32 53 47 24 78 38 78 51 52 41 43 22 6 22 50 -3 -47 -85 -63 -33 -1 9 26 20
77 59 61 83 93 89 76 37 54 67 58 54 53 45 44 38 51 48 46 59 41 42 46 16 25 46 24 37 62 41 43 -32 43 19 13 -14 33 72 25 -13 -73 -37 -54 9 83 120 117
80 86 92 84 80 78 66 63 70 69 66 68 58 61 51 46 47 44 41 48 53 64 28 3 46 47 33 53 62 10 -10 0 14 -3 -7 6 83 32 -27 4 -50 -33 90 95 63 63 129
47 44 47 57 64 60 54 55 61 60 65 55 60 66 76 63 47 52 42 83 111 38 18 14 74 72 64 71 53 69 17 -15 28 37 28 28 92 32 -4 29 -1 29 31 34 74 39 224
53 46 41 42 47 43 39 42 33 55 58 61 70 75 73 76 72 55 63 37 70 77 33 56 73 85 34 104 126 66 23 14 -16 70 67 54 64 25 18 12 71 72 40 14 137 46 89
55 42 31 22 24 27 27 25 34 39 50 50 60 71 65 76 68 73 87 67 66 64 4 29 40 33 21 31 109 116 64 88 73 28 93 41 57 33 8 12 23 9 1 -70 14 34 72
61 52 39 29 26 25 26 30 39 46 52 54 54 60 61 73 69 84 144 88 149 210 27 -71 50 123 98 67 24 -9 57 49 107 52 64 93 29 64 12 16 17 -42 2 -108 -45 28 24
66 56 50 38 25 28 33 39 52 57 51 56 58 70 64 70 75 100 135 151 176 143 12 -6 95 56 95 126 98 16 -39 94 77 46 12 42 18 1 -23 27 71 -10 -17 -27 -59 -26 -26
60 64 54 47 42 49 59 63 62 59 53 52 63 68 71 72 95 55 157 251 311 78 60 8 76 43 55 231 225 63 28 71 120 20 113 23 21 8 -16 4 44 10 14 13 -15 -63 -23
63 62 55 52 49 58 66 66 62 54 47 48 54 67 69 102 31 -42 89 248 202 222 117 132 90 110 120 72 23 154 100 53 89 54 7 -7 18 -43 -20 19 65 -43 75 66 -8 11 -31
43 45 47 51 50 56 73 68 58 58 51 43 36 29 80 89 50 75 43 233 308 327 163 181 199 116 119 117 41 -12 129 136 147 121 48 7 10 -13 -30 31 66 -63 54 31 37 7 3
36 36 43 44 49 54 66 67 61 77 72 50 37 17 65 64 36 71 140 243 358 254 331 99 100 136 115 100 63 36 53 95 83 133 119 82 25 -32 -35 27 65 4 59 77 23 -2 -89
32 39 38 37 38 50 49 57 58 57 69 51 28 83 117 56 30 83 203 224 320 320 197 130 83 267 108 71 68 95 63 67 117 107 149 137 26 41 -50 25 103 7 83 121 121 97 -43
36 36 24 26 42 49 47 42 47 53 52 32 106 119 138 37 60 131 237 157 185 206 304 133 344 79 204 98 84 86 102 82 75 90 98 67 101 19 15 55 88 78 44 90 110 78 9
29 37 29 31 33 35 36 35 40 41 34 38 128 156 142 62 79 172 193 256 101 113 124 103 108 281 123 112 73 58 107 52 92 104 148 80 61 47 81 44 105 120 -19 50 70 119 62
22 6 5 8 6 14 27 34 51 38 29 67 175 205 77 165 161 214 131 301 110 103 29 41 142 98 217 78 -13 148 53 124 25 62 99 118 87 72 70 85 80 81 65 53 102 83 113
-13 -10 -4 -2 -1 18 40 50 53 45 40 146 227 308 120 280 237 185 85 51 17 116 116 83 0 29 60 142 124 150 38 31 -7 13 57 87 81 103 84 77 71 60 76 49 88 165 35
-11 3 -3 -7 -4 9 61 70 72 51 40 137 280 345 375 245 221 170 186 75 14 125 13 21 19 79 77 119 100 123 -1 17 3 57 153 70 105 107 86 127 110 116 77 23 42 133 91
-1 -9 -13 -13 -4 63 74 75 74 53 25 152 346 401 534 314 311 166 142 154 8 59 112 96 31 -53 113 118 191 137 52 8 11 82 89 123 80 62 93 96 90 86 39 22 33 63 114
-7 -8 -19 54 59 53 54 27 -39 25 32 98 329 497 487 437 330 259 151 70 120 135 98 121 42 -29 4 131 97 159 42 -8 -70 76 21 218 81 88 147 161 53 111 94 16 1 79 82
4 62 82 89 84 57 52 88 71 64 25 86 380 354 368 330 353 311 210 106 70 135 36 66 75 54 -3 -103 151 116 45 -34 -49 -66 40 140 219 177 130 154 97 53 78 53 85 61 20
29 38 44 48 51 41 57 84 76 58 24 125 206 381 489 419 331 264 183 123 121 108 64 101 51 81 4 19 36 80 155 94 -34 -134 44 132 251 264 188 248 169 104 37 59 92 55 15
38 42 42 44 45 54 58 56 38 41 58 159 236 371 507 441 201 188 191 148 124 116 85 70 36 7 52 1 91 122 146 54 12 -82 35 130 153 205 198 229 189 158 213 96 117 66 34
42 44 47 50 52 54 67 71 50 39 36 99 120 337 483 421 380 134 168 183 176 119 90 45 -12 19 0 45 128 104 90 25 -66 -33 -42 78 -14 168 469 255 172 80 167 195 130 100 91
32 32 31 27 37 46 49 63 65 33 18 137 136 121 438 474 305 237 203 159 156 148 126 86 80 39 25 84 98 111 128 77 11 -49 -76 -26 40 70 438 366 241 126 75 39 140 90 52
32 34 43 47 55 64 76 85 78 52 47 125 219 161 204 304 231 284 193 206 146 79 119 117 93 50 86 106 112 116 138 56 10 134 57 2 99 -50 113 192 179 193 206 153 250 124 31
22 32 42 43 45 54 56 73 96 74 68 109 241 194 198 172 125 212 234 271 158 162 135 64 70 76 118 119 136 212 206 99 -41 -69 3 61 75 25 33 84 177 111 57 37 90 153 184